Miscellaneous Local Product
Issued by NWS Hastings, NE

Home | Current Version | Previous Version | Text Only | Print | Product List | Glossary On
Versions: 1 2 3 4 5 6 7 8 9 10 11 12 13 14 15 16 17 18 19 20 21 22 23 24 25 26 27 28 29 30 31 32 33 34 35 36 37 38 39 40 41 42 43 44 45 46 47 48 49 50
807
AXUS43 KGID 240502
MISGRI

GID CWA HOURLY WEATHER ROUNDUP
NATIONAL WEATHER SERVICE HASTINGS NE
1100 PM CST MON JAN 23 2017

NOTE: "FAIR" INDICATES FEW OR NO CLOUDS BELOW 12,000 FEET WITH NO
SIGNIFICANT WEATHER AND/OR OBSTRUCTIONS TO VISIBILITY.

...SOUTH CENTRAL NEBRASKA...

CITY           SKY/WX    TMP DP  RH WIND       PRES   REMARKS
GRAND ISLAND   CLOUDY    32  32 100 E13       29.72F FOG     WCI  22
HASTINGS       FOG       32  31  96 E13       29.70S VSB 1/2 WCI  22
KEARNEY        CLOUDY    32  30  93 E12       29.67F VSB 1/2 WCI  23
ORD            CLOUDY    32  29  88 E9        29.71S FOG     WCI  24
YORK           PTCLDY    32  32 100 SE14      29.75S FOG     WCI  22
AURORA         CLOUDY    32  32 100 E13G18    29.72F FOG     WCI  22
LEXINGTON      CLOUDY    32  32  97 E9        29.64F FOG     WCI  25
HOLDREGE       PTCLDY    32  30  94 E13       29.63R FOG     WCI  22
HEBRON         MOCLDY    31  31 100 E6        29.73S FOG     WCI  25

...NEBRASKA PANHANDLE...

CITY           SKY/WX    TMP DP  RH WIND       PRES   REMARKS
CHADRON        FOG       24  23  96 NE12      29.68S VSB 3/4 WCI  13
ALLIANCE       CLOUDY    27  26  96 NE14      29.59F FOG     WCI  16
SCOTTSBLUFF    CLOUDY    30  26  85 NE18G25   29.55F WCI  18
SIDNEY         CLOUDY    36  31  82 NE10      29.55F WCI  28

...WESTERN AND NORTH CENTRAL NEBRASKA...

CITY           SKY/WX    TMP DP  RH WIND       PRES   REMARKS
VALENTINE      FOG       30  28  92 SE10      29.67S VSB 3/4 WCI  21
AINSWORTH      FOG       32  32 100 SE12      29.68S VSB 3/4 WCI  23
ONEILL         CLOUDY    32  32  99 SE9       29.73S FOG     WCI  24
BROKEN BOW     FOG       32  31  96 E13       29.67S VSB 1/4 WCI  22
IMPERIAL       CLEAR     32  27  81 NE5       29.55F WCI  27
NORTH PLATTE   PTCLDY    31  29  92 E7        29.62S WCI  24
MCCOOK         CLEAR     34  30  85 E9        29.56F WCI  27

...EASTERN NEBRASKA...

CITY           SKY/WX    TMP DP  RH WIND       PRES   REMARKS
NORFOLK        CLOUDY    30  27  88 SE10      29.77S FOG     WCI  21
SO SIOUX CITY  CLOUDY    33  30  88 E6        29.84R WCI  28
TEKAMAH        CLOUDY    32  28  85 SE10      29.84S WCI  24
COLUMBUS       CLOUDY    30  28  93 E10       29.79S WCI  21
ALBION         CLOUDY    32  29  90 SE14      29.76S FOG     WCI  22
OMAHA EPPLEY   CLOUDY    32  27  81 SE9       29.85R WCI  24
OFFUTT AFB     CLEAR     28  28 100 E5        29.83S WCI  23
MILLARD        CLOUDY    33  30  91 E5        29.84R WCI  28
LINCOLN        CLOUDY    32  29  88 E9        29.81S WCI  24
NEBRASKA CITY  PTCLDY    30  30 100 E7        29.81F WCI  23
BEATRICE       CLEAR     32  31  96 E8        29.76F FOG     WCI  25
FALLS CITY     CLEAR     30  28  92 E8        29.81F WCI  22

...NORTHERN KANSAS...

CITY           SKY/WX    TMP DP  RH WIND       PRES   REMARKS
GOODLAND       CLEAR     33  28  81 S13       29.47F WCI  24
HILL CITY      CLEAR     34  31  88 E8        29.57F WCI  27
NORTON         CLEAR     34  27  75 E10       29.57F WCI  26
PHILLIPSBURG   CLEAR     36  30  80 E13       29.62S WCI  27
SMITH CENTER   CLEAR     34  30  86 E16       29.64S WCI  23
HAYS           CLOUDY    37  32  82 E6        29.58F WCI  32
RUSSELL        CLOUDY    38  32  79 SE16      29.57F WCI  29
CONCORDIA      CLEAR     33  32  96 E10       29.69F FOG     WCI  25
SALINA         CLEAR     43  32  65 E15       29.69F
TOPEKA         CLEAR     32  29  88 E7        29.80F FOG     WCI  26



USA.gov is the U.S. government's official web portal to all federal, state and local government web resources and services.